Weather in Akatovo

Russia / Smolensk Oblast     55°35′36″N   35°11′41″E
temp.,
°C
wind,
m/s
gust,
m/s
humid.,
%
clouds,
%
prec.,
mm/h
press.,
hPa
HPBL,
m
21 january, thu
thu2100:00−18ssw389327 0.0 1022138
03:00−17ssw4119161 0.0 1021227
06:00−15s51188100 0.0 1018302
09:00−13s51294100 0.2 1016377
12:00−11ssw51194100 1.1 1014478
15:00−9ssw5994100 2.2 1012495
18:00−9ssw3895100 0.2 1013282
21:00−7ssw389699 0.3 1012215
22 january, fri
fri2200:00−3ssw499695 0.6 1011346
03:000sw499598 0.7 1011552
06:000sw51095100 0.0 1010525
09:00+1sw51094100 0.0 1011458
12:00−1ssw5109595 0.0 1010420
15:00+1s4119997 0.1 1010415
18:00+1s41199100 0.1 1009371
21:00+1ssw51198100 0.3 1008523
23 january, sat
sat2300:00+1sw41198100 0.2 1008446
03:00+1ssw51197100 0.7 1008443
06:000s61295100 0.4 1008472
09:00+1ssw61396100 0.7 1008497
12:00+1ssw51297100 0.3 1008532
15:00+1ssw51098100 0.4 1008434
18:00+1ssw41099100 0.2 1009338
21:00+1s41098100 0.4 1009366
24 january, sun
sun2400:00+1ssw3898100 0.3 1009356
03:00+1s4898100 0.3 1010386
06:00+1s4998100 0.0 1009332
09:00+1sse41099100 0.0 1009335
12:00+2sse512100100 0.0 1009413
15:00+2sse41199100 0.0 1007347
18:00+2sse61398100 0.1 1007425
21:00+3sse61698100 0.2 1006630
25 january, mon
mon2500:00+2sse71595100 0.1 1005635
03:00+1sse71595100 0.1 1005663
06:00+2sse61494100 0.0 1005560
09:00+2sse5139798 0.1 1006511
12:00+2s41099100 0.1 1008378
15:00+2s3710097 0.1 1009283
18:00+2sse3998100 0.0 1009285
21:00+1se51198100 0.0 1009547